Theta_e
309 309 309 308 308 307 307 307 307 306 307 309 309 309 309 309 309 308 309 315 316 319 319 318 319 321 321 322 324 322 325 331 330 332 331 331 332 330 329 327 331 328 330 328 333 336 337 338 340 348 345 337 347 349
311 311 310 309 309 309 309 309 308 307 306 308 308 309 308 309 308 308 310 311 313 315 318 316 315 316 317 318 320 321 323 326 335 337 337 338 339 339 339 339 333 339 336 334 337 337 338 336 336 335 336 335 345 347
311 311 311 309 309 309 310 309 307 306 306 308 308 308 308 308 308 308 309 309 311 317 318 319 320 319 318 318 318 320 323 325 327 327 330 335 341 339 340 336 336 338 337 337 338 336 336 337 335 335 334 336 338 342
311 312 311 309 309 310 310 308 307 308 308 307 307 308 308 308 308 308 308 309 311 315 320 321 322 322 323 321 320 319 318 318 318 324 327 331 335 334 334 334 335 334 336 336 337 335 332 334 336 335 339 338 338 336
310 312 310 309 309 310 310 307 308 306 307 306 307 308 308 308 308 308 308 309 310 314 321 320 317 321 322 324 322 320 317 317 319 325 329 330 332 332 332 331 333 330 331 332 334 330 331 335 334 335 340 339 337 337
310 310 309 309 310 310 309 308 307 307 307 307 307 308 307 309 308 308 317 314 312 313 317 322 321 323 325 324 324 324 321 318 320 324 325 328 327 329 331 333 332 325 324 324 329 330 331 333 336 338 338 338 336 335
308 309 309 309 310 310 308 307 306 307 308 308 308 308 308 308 308 311 317 314 315 314 319 324 328 328 325 326 325 324 322 321 320 321 323 323 326 327 330 330 328 325 325 329 328 328 330 330 331 333 336 336 333 335
308 308 309 310 310 309 308 307 307 307 308 308 308 309 309 308 309 310 314 315 314 316 319 325 330 328 327 329 330 327 325 322 323 323 325 324 324 328 330 330 330 328 329 328 328 326 325 326 327 327 331 335 336 337
308 309 309 310 310 309 307 306 307 307 307 308 310 311 310 310 317 317 316 315 314 315 323 328 331 335 329 328 329 330 330 329 329 327 328 329 327 332 333 330 332 331 330 329 329 328 326 327 327 330 331 336 335 334
310 310 310 310 310 308 307 306 306 307 308 309 314 316 320 313 314 313 315 318 317 319 320 324 324 330 330 332 331 334 331 332 333 332 329 331 331 330 329 330 334 334 333 332 331 331 331 332 334 332 333 335 335 332
310 310 310 310 310 308 307 306 306 307 309 308 308 312 310 310 313 320 324 325 324 326 325 324 323 325 328 333 334 333 337 336 333 332 334 335 333 337 335 335 333 332 330 330 329 330 335 336 337 335 333 333 332 332
309 310 310 310 309 308 307 306 307 306 307 306 305 306 308 314 320 324 326 328 328 329 328 328 327 325 328 332 334 333 336 336 337 334 336 337 345 340 336 335 333 329 333 335 335 335 333 334 334 332 329 328 328 331
309 309 310 310 309 308 307 306 305 304 306 309 308 311 315 320 320 325 323 328 330 330 329 333 334 332 332 334 334 333 336 336 333 335 336 342 344 340 339 335 333 333 334 334 333 333 332 333 331 331 332 331 330 330
309 310 310 309 308 307 306 305 305 305 307 312 316 314 319 322 323 325 326 329 327 329 330 332 334 336 334 334 335 334 333 333 335 337 339 342 340 341 338 336 334 334 333 332 332 332 332 331 330 329 330 328 327 327
310 309 309 308 308 307 307 306 305 306 310 312 315 319 321 322 323 323 322 326 325 324 330 331 332 332 333 332 332 332 334 335 333 338 341 340 339 339 338 336 334 333 331 330 329 329 329 328 328 328 327 327 327 328
309 308 309 309 308 307 306 306 307 308 310 311 313 318 320 322 323 323 323 324 321 322 327 330 330 331 332 332 333 333 333 336 337 337 340 337 337 337 338 336 334 332 329 328 328 328 329 328 327 327 326 326 326 327
307 307 309 308 307 307 306 307 309 311 312 313 315 317 318 320 321 321 322 323 320 324 329 329 329 331 330 333 332 335 336 335 334 330 329 334 335 336 335 332 331 331 330 329 328 328 327 327 327 325 325 326 324 325
306 308 308 307 305 306 309 308 311 313 314 314 315 316 318 317 319 319 320 319 321 324 325 327 327 330 332 332 332 333 331 331 331 328 329 333 333 332 334 330 330 329 328 327 327 329 328 328 326 326 325 324 325 325
306 307 306 304 303 305 309 309 310 313 313 314 315 315 316 318 318 318 317 317 319 320 322 325 327 329 329 329 331 330 330 330 330 333 334 333 333 333 332 331 330 328 327 327 328 329 329 328 328 326 325 325 326 325
304 304 305 305 304 308 310 310 310 312 312 314 313 314 316 317 317 316 317 317 319 320 323 323 323 324 324 324 325 325 327 328 329 329 330 331 331 331 331 331 330 327 328 327 328 327 329 328 325 327 326 326 325 324
306 307 306 305 306 307 309 310 312 313 313 313 313 314 314 315 315 316 317 317 318 318 320 321 320 320 323 327 326 328 327 325 329 330 331 331 331 329 329 328 328 329 326 326 326 325 324 326 326 325 325 325 326 323
307 305 307 307 309 309 308 308 309 311 311 311 312 313 315 315 316 317 316 318 318 318 318 319 319 320 323 326 327 326 327 324 323 323 323 325 330 331 330 329 328 327 324 324 324 324 325 325 324 326 325 324 323 323
305 306 307 309 310 307 307 309 310 312 313 314 316 318 320 320 321 320 321 320 320 323 323 324 324 324 327 325 324 324 324 325 325 325 325 325 325 328 328 328 327 327 325 324 322 324 324 324 323 323 323 323 322 323
306 307 309 310 308 308 310 312 313 313 313 315 316 318 318 321 320 322 322 324 326 325 326 324 324 323 324 324 325 325 325 324 325 325 323 324 325 324 327 326 326 325 325 323 323 323 322 321 321 324 323 321 321 321
308 307 307 304 309 311 311 313 313 315 316 316 317 318 320 319 319 321 323 326 327 327 323 322 321 320 320 320 321 322 324 323 327 326 324 321 323 322 323 325 324 324 325 324 324 324 323 322 321 321 323 322 322 322
306 308 306 310 311 312 313 314 315 316 316 316 316 318 320 321 321 323 324 323 322 321 320 319 318 318 318 317 318 319 323 322 323 326 324 323 322 321 323 326 325 325 325 325 324 324 323 322 322 322 322 322 321 322
307 308 310 310 310 311 312 312 313 313 314 315 317 318 320 321 321 323 323 322 322 320 317 316 316 317 318 317 316 317 318 321 323 324 325 324 322 322 322 324 324 322 325 324 324 324 324 322 323 323 322 322 322 321
308 309 310 312 312 312 311 311 312 313 314 315 316 318 319 320 323 324 324 322 319 318 316 316 316 317 318 317 316 317 318 320 322 321 323 324 323 323 321 321 322 323 323 323 323 322 323 323 323 322 322 323 322 322
309 309 310 310 311 311 311 311 311 311 313 314 316 316 318 317 317 317 318 319 319 318 319 318 319 318 317 317 316 317 318 320 324 325 325 324 324 322 321 324 324 323 322 322 323 323 322 323 323 323 323 322 322 322
309 309 310 310 311 311 311 311 312 313 314 314 314 315 315 316 316 320 319 320 322 323 322 321 321 320 320 320 320 320 318 320 321 324 326 325 324 323 324 324 323 322 321 322 323 323 324 322 320 322 323 323 323 323
310 310 310 311 312 312 312 312 312 313 314 314 316 317 319 318 321 321 322 322 321 321 323 322 321 320 321 322 323 323 322 323 323 322 321 321 322 321 323 325 324 322 321 321 321 323 323 324 321 322 323 324 325 325
311 310 311 312 312 312 311 315 317 318 319 321 321 322 323 324 324 323 322 322 324 323 322 322 322 320 321 321 321 320 320 322 322 323 323 319 319 321 321 323 324 324 325 326 325 325 324 322 322 322 323 323 325 324
312 312 311 311 313 317 316 315 322 323 324 325 325 327 326 324 326 327 321 322 323 322 322 321 322 321 321 322 321 322 320 324 326 324 319 319 322 323 322 322 322 324 324 324 323 323 323 323 324 324 322 322 322 323
Wind_Speed
20 21 22 22 22 23 23 24 26 26 26 23 23 22 21 20 20 20 19 12 9 6 15 16 12 10 11 7 5 10 9 6 0 4 4 5 4 7 7 12 9 10 4 5 3 3 2 3 9 6 3 7 12 12
21 21 22 22 23 24 24 25 26 26 26 23 23 22 21 20 18 17 9 16 19 4 9 34 40 36 28 23 8 4 5 5 3 4 4 4 3 3 6 6 5 1 4 7 6 6 5 11 10 7 7 3 8 13
21 22 22 22 24 25 27 27 26 25 25 24 23 22 21 20 18 14 16 16 11 5 9 9 13 31 30 34 27 4 3 3 4 3 2 3 3 3 3 4 7 6 8 4 6 5 7 10 8 7 6 1 9 14
22 23 23 23 24 25 27 28 25 25 25 26 25 24 23 21 20 18 17 13 8 5 4 6 12 14 17 25 29 28 17 15 6 3 2 2 2 4 4 2 3 1 7 3 4 5 6 4 6 8 10 11 11 9
23 23 23 23 24 26 28 27 26 25 26 27 27 26 24 22 23 24 25 20 19 5 4 8 26 17 16 18 22 20 13 6 2 2 2 3 3 4 4 3 4 4 3 3 3 5 3 2 9 10 10 10 9 10
22 23 23 23 24 26 28 27 26 27 28 27 27 27 24 20 18 10 2 3 14 16 4 4 8 8 18 18 11 7 5 4 3 2 3 4 6 0 1 2 4 8 8 8 3 6 8 6 7 8 8 9 13 13
21 22 23 23 24 25 26 27 28 30 30 29 31 30 23 17 10 6 3 2 10 12 3 5 4 5 9 6 3 3 5 3 4 4 3 3 4 1 2 3 3 6 6 6 7 7 6 6 2 5 7 10 10 9
20 21 22 22 24 24 24 27 29 31 30 35 33 21 17 12 8 8 9 11 9 5 3 4 5 3 6 4 3 4 4 3 3 4 2 4 3 1 2 0 1 4 4 7 6 5 2 5 5 5 4 10 12 14
20 21 22 22 23 23 23 26 28 29 34 33 23 14 3 3 3 2 2 9 11 3 3 3 4 3 3 4 2 2 4 3 4 4 4 4 4 4 6 8 5 3 1 2 4 6 7 7 6 4 2 12 13 10
21 21 22 22 22 22 22 24 27 27 29 23 7 3 1 5 10 6 2 4 4 4 4 4 4 5 3 3 2 4 3 3 3 5 3 2 3 5 4 7 6 6 7 4 4 5 5 7 8 10 11 13 15 15
19 20 21 22 22 21 20 22 22 25 13 10 6 3 10 13 4 4 3 4 5 4 4 4 9 6 4 2 1 5 3 1 2 4 6 4 3 2 7 9 7 6 5 4 3 4 15 11 11 11 11 13 11 12
19 20 21 21 21 20 19 21 16 14 11 11 15 12 6 3 3 4 3 3 5 4 5 4 5 6 4 2 3 3 3 5 3 5 2 2 1 6 9 9 8 8 12 15 15 15 13 11 10 9 8 9 9 12
19 20 21 20 19 18 18 14 14 18 18 5 2 2 2 2 2 4 4 3 2 4 3 4 3 2 2 2 3 4 2 4 4 2 1 2 4 6 7 7 7 7 12 10 9 10 12 9 17 12 6 5 7 11
19 21 21 20 17 14 7 13 16 14 5 2 3 3 4 3 5 3 4 3 3 5 8 3 2 2 3 1 2 1 3 3 3 3 1 4 6 7 7 9 11 10 10 10 8 8 9 10 8 13 14 12 8 6
17 20 21 17 6 5 13 17 12 5 3 3 3 4 6 2 3 7 6 3 6 8 7 2 3 3 3 2 2 0 1 4 2 2 3 6 7 8 7 7 7 7 7 7 7 7 7 9 8 9 13 13 13 12
17 16 5 6 6 13 17 17 9 5 3 3 5 5 4 2 2 2 2 3 2 7 2 2 2 3 2 3 3 4 3 2 2 2 2 5 7 6 6 7 6 6 6 6 7 8 9 9 5 4 8 9 12 11
10 5 6 9 14 18 14 5 3 4 4 4 4 6 7 6 5 1 4 1 3 5 3 1 3 3 4 3 3 4 4 1 2 2 3 3 6 5 5 6 5 5 5 6 6 6 3 3 2 4 3 6 7 8
7 9 12 11 17 14 6 8 4 4 7 7 6 5 4 4 6 5 2 3 3 4 3 2 2 2 3 4 2 1 1 2 5 5 4 3 4 5 4 5 4 6 5 3 1 2 3 4 2 2 2 4 6 6
12 11 15 14 9 4 3 4 5 3 4 5 5 3 3 5 4 4 6 5 5 4 3 2 4 3 1 2 3 2 2 1 3 3 4 4 6 6 6 5 6 6 6 3 2 4 3 2 1 1 5 2 2 2
13 11 8 6 4 3 3 3 4 4 4 3 5 6 4 3 4 4 5 4 4 2 3 3 3 1 4 3 5 5 1 2 0 3 3 3 4 6 6 7 5 9 7 8 8 6 5 3 1 2 7 7 3 5
6 3 2 3 4 7 3 3 3 3 4 4 6 7 3 5 5 5 4 3 3 3 3 3 4 7 5 1 3 4 2 1 2 1 3 3 5 9 9 12 14 12 7 7 4 7 6 6 5 6 9 6 4 2
2 3 2 4 3 4 3 5 4 6 3 5 7 4 5 5 6 5 5 5 5 6 5 4 5 4 3 4 3 4 7 2 3 2 2 4 4 3 4 6 6 5 7 13 11 8 10 10 9 9 5 9 4 4
5 2 4 3 3 1 5 6 4 3 3 3 3 3 3 2 2 1 2 3 3 2 2 2 2 2 3 9 10 9 8 5 3 3 5 7 6 7 8 10 11 2 3 8 10 8 14 15 14 12 9 9 9 8
4 3 3 3 4 4 4 3 4 3 3 3 3 3 3 2 2 3 3 3 1 2 2 2 2 3 4 4 2 3 7 9 7 8 8 7 3 3 9 13 11 9 13 14 7 17 15 11 12 19 15 13 12 10
3 3 3 4 4 4 3 3 3 3 3 2 3 4 2 3 2 2 2 2 1 2 1 2 3 4 5 6 5 3 3 7 5 6 12 13 6 6 5 8 8 13 15 7 4 9 10 18 17 13 18 18 14 11
3 4 6 4 2 2 2 3 1 3 4 3 2 3 1 2 3 1 1 1 2 2 3 4 5 6 6 6 7 5 6 7 8 5 11 12 13 7 3 3 2 19 19 8 6 13 11 13 13 9 7 14 23 18
3 4 5 3 2 2 3 4 5 5 4 2 2 2 2 2 2 0 2 3 3 7 14 13 9 6 7 7 9 11 15 14 9 10 10 8 12 14 18 4 6 8 3 5 12 16 20 15 14 12 13 10 13 17
4 3 3 2 2 2 3 3 3 3 3 2 2 2 2 2 2 2 3 9 16 9 11 11 11 13 11 10 11 12 14 9 5 9 13 12 13 14 15 15 11 15 10 9 13 10 15 16 14 15 13 6 6 1
3 3 4 8 7 3 3 3 4 3 2 2 3 5 4 5 8 9 8 4 4 11 7 6 9 11 12 15 14 15 13 11 2 7 8 6 3 12 19 14 13 15 18 15 12 14 14 10 10 21 20 6 2 3
3 2 2 5 4 4 5 6 5 7 7 5 6 7 9 9 15 19 6 3 5 7 10 6 6 9 7 6 6 11 15 16 13 8 1 2 5 15 14 7 14 12 17 19 19 22 22 18 13 13 16 7 9 9
2 1 2 3 3 4 6 6 6 8 9 10 9 10 10 7 2 7 14 13 10 12 14 5 5 4 4 6 6 6 4 6 13 11 9 15 16 12 7 8 9 18 20 24 25 25 18 28 14 11 6 4 8 14
2 3 1 2 4 4 6 4 5 6 7 6 6 4 5 1 2 2 4 9 11 13 10 16 15 16 17 3 2 4 15 11 21 20 16 12 10 11 7 8 9 12 15 16 18 19 13 15 21 20 3 5 2 10
2 1 3 3 3 3 3 3 2 4 2 2 1 2 1 2 2 2 5 4 3 12 10 12 8 14 20 15 14 12 6 7 5 9 9 13 7 5 9 11 13 7 15 19 5 4 19 23 6 13 11 8 4 12
Wind_Direction
331 332 334 336 336 337 339 338 338 338 339 336 337 337 339 339 342 341 297 353 321 289 283 264 288 311 315 290 294 334 329 3 98 160 194 248 260 257 234 237 227 234 214 228 195 154 159 2 42 79 170 27 95 97
328 330 329 330 331 332 334 335 334 335 335 331 332 331 332 332 333 333 292 313 328 265 271 295 286 275 255 256 296 317 288 302 333 27 14 329 301 329 272 259 225 68 237 190 140 168 147 90 112 89 96 68 115 116
322 325 326 326 327 329 329 332 333 332 332 328 327 325 326 325 323 317 297 305 309 266 280 246 250 262 243 238 233 257 281 356 17 12 295 271 290 2 337 71 356 13 18 88 80 13 101 115 117 121 104 188 138 143
317 319 323 324 325 327 328 327 329 329 328 326 322 320 320 318 314 310 288 278 297 267 279 290 332 288 290 218 219 225 249 289 313 5 296 270 306 9 343 352 18 121 30 64 91 52 76 49 142 136 111 93 95 97
315 317 320 322 324 327 326 325 325 331 329 323 320 319 316 313 314 309 291 263 227 259 306 299 301 285 257 215 202 212 218 236 252 304 280 286 302 25 337 13 18 23 65 56 318 323 144 167 131 134 132 133 131 112
312 313 317 319 323 326 325 323 323 326 326 323 322 324 320 312 316 326 269 189 211 212 285 292 327 284 290 169 172 178 211 210 195 199 250 246 246 125 76 336 332 12 3 33 33 70 81 54 99 98 106 114 130 129
312 311 314 317 323 326 325 324 323 324 322 323 322 319 310 304 284 225 289 176 163 196 256 288 277 230 214 128 180 189 198 190 168 217 234 261 294 294 155 173 289 327 347 46 35 34 56 76 54 68 149 166 151 138
310 310 311 316 322 325 324 323 324 325 326 325 323 316 306 297 268 266 260 190 184 253 261 274 267 258 159 179 215 193 158 171 209 224 250 201 299 241 211 182 340 325 57 57 38 20 10 17 70 359 355 140 152 153
310 311 311 315 322 324 325 328 326 327 331 329 324 305 283 207 244 0 127 190 208 267 289 275 300 265 321 239 242 176 166 173 198 199 227 171 226 218 187 217 222 229 105 55 54 31 14 360 323 319 136 153 141 130
308 310 311 315 322 322 326 329 328 333 335 338 356 329 42 357 323 306 185 179 195 214 221 253 268 270 321 303 227 187 179 227 170 215 185 202 258 256 269 209 158 116 70 40 101 49 349 6 27 68 81 77 91 84
305 307 309 312 319 320 322 328 330 342 346 352 349 340 304 321 296 218 224 205 178 221 214 236 226 250 287 253 332 23 303 343 202 250 173 180 167 344 91 79 71 76 75 30 347 82 74 68 91 100 87 91 100 114
302 306 308 310 315 316 319 323 329 344 327 301 289 301 296 276 242 255 233 214 196 233 193 222 235 192 251 177 110 359 10 338 291 322 68 99 40 51 80 74 55 40 70 60 66 79 75 75 97 113 126 131 142 147
303 304 308 310 312 315 317 320 329 327 325 268 207 252 248 243 285 238 219 213 228 339 335 324 319 318 179 286 121 134 184 255 310 4 192 130 113 64 61 74 50 56 83 75 69 67 66 72 57 52 77 90 162 182
299 305 306 307 309 313 324 330 333 334 296 262 251 269 226 206 246 252 338 327 304 314 316 308 307 329 329 253 11 70 174 166 217 223 143 135 97 79 69 64 65 55 61 71 62 61 58 55 45 40 43 24 13 11
300 303 307 306 317 305 322 325 327 315 272 269 280 253 223 305 242 285 312 0 2 306 283 322 21 42 311 251 213 88 250 248 227 67 99 134 106 84 80 75 72 70 67 64 64 63 58 52 43 32 26 7 358 8
301 312 267 305 306 316 324 318 292 223 246 245 242 265 309 276 306 346 341 311 276 317 339 52 52 88 271 244 214 195 223 49 40 112 74 110 99 90 90 85 81 72 73 69 71 66 59 52 18 357 18 1 359 349
297 255 264 289 309 313 314 287 237 210 242 236 240 246 270 280 297 320 272 205 269 311 2 46 122 262 295 255 174 22 43 339 169 88 289 94 110 102 91 100 97 91 76 65 58 67 58 288 331 33 347 347 316 301
250 279 284 301 325 325 292 202 251 235 233 236 243 266 265 269 286 295 337 340 358 324 342 59 76 324 303 347 50 62 339 36 133 185 221 207 133 139 118 122 136 122 118 129 175 260 262 298 185 115 5 298 292 283
270 274 283 300 310 306 268 219 235 264 259 262 242 235 247 275 254 278 280 282 275 280 299 264 206 197 125 329 39 345 347 336 71 103 126 145 162 159 150 189 174 159 180 184 260 129 128 73 352 272 245 237 18 329
292 294 289 269 222 257 259 245 223 256 278 305 309 286 259 261 269 275 273 277 296 296 204 229 251 85 142 204 229 225 184 341 337 113 150 150 204 203 187 193 216 203 211 207 219 185 175 240 9 160 94 96 38 33
313 261 286 207 224 224 271 290 262 251 284 282 287 286 271 271 252 253 259 238 229 225 250 228 279 289 310 191 332 359 158 237 307 21 146 169 199 192 204 206 234 225 208 218 209 177 187 168 197 148 148 156 231 130
271 303 272 214 262 200 259 257 268 308 282 269 288 263 261 251 258 236 245 224 235 232 234 236 248 254 319 352 8 343 318 192 323 85 164 166 204 216 218 236 272 243 236 190 214 170 162 166 192 190 153 157 145 131
291 249 243 236 251 288 259 240 245 238 258 265 263 253 223 234 249 132 266 231 231 194 172 226 268 293 279 275 279 283 289 269 240 252 248 220 201 221 213 244 273 269 288 206 209 185 165 187 178 179 169 184 188 214
255 262 235 216 199 260 244 228 224 258 253 248 267 281 300 312 251 208 246 185 143 92 82 31 305 288 280 247 284 306 327 327 324 282 260 281 185 252 217 231 252 290 296 280 177 176 166 163 174 186 190 203 206 204
247 259 191 249 236 236 253 242 220 245 260 299 278 272 341 300 275 258 300 39 96 161 159 8 311 298 300 298 309 309 332 307 272 243 247 227 245 236 298 241 252 282 294 272 185 181 160 191 193 208 194 199 207 223
234 222 190 242 212 234 278 284 267 284 289 298 305 327 263 252 260 344 79 204 352 342 328 303 292 284 279 282 277 281 280 293 269 262 267 223 201 198 216 184 111 280 259 237 313 284 240 194 200 209 218 204 201 215
246 245 218 234 234 256 287 301 298 262 271 264 297 292 274 283 275 245 169 209 211 213 245 257 264 275 273 280 287 283 278 262 261 268 281 287 216 245 216 227 191 227 312 333 308 293 222 215 232 248 220 225 220 219
252 289 285 313 311 286 275 280 280 271 254 274 303 287 293 294 275 234 248 247 230 256 256 264 261 262 263 246 260 270 267 277 264 278 273 269 256 245 222 235 222 248 259 277 305 340 222 210 242 258 249 232 18 102
248 261 287 280 267 241 251 246 245 258 297 300 287 292 283 323 320 304 312 100 178 233 257 265 275 251 251 250 243 243 246 253 270 234 229 255 196 208 228 225 218 240 233 255 290 303 294 219 244 239 247 243 238 36
260 270 265 262 257 236 225 222 286 330 329 313 313 297 286 284 298 325 130 94 290 306 290 268 273 271 255 254 249 225 218 226 236 234 193 301 348 331 333 255 219 224 218 242 274 284 287 266 225 219 224 225 241 234
288 299 285 263 262 258 264 280 274 272 267 268 260 258 267 282 65 30 359 342 318 301 312 277 243 236 316 341 1 62 58 297 219 198 207 249 254 277 307 337 244 225 238 250 259 264 276 245 221 224 210 256 83 90
155 206 243 282 288 307 319 260 245 239 258 241 254 271 259 124 123 260 270 300 18 24 21 11 13 345 322 14 29 216 213 242 239 225 220 231 243 248 260 290 288 278 262 265 284 277 247 210 209 226 130 98 120 136
100 150 211 263 262 250 212 249 289 320 320 25 259 302 357 0 349 128 219 262 117 125 81 46 41 279 272 272 230 226 231 235 231 192 215 224 206 236 291 317 325 256 238 261 301 307 308 308 267 193 181 217 253 269